Find Starlink 5986

NORAD ID: 56452 Int'l Des: 2023-064 Owner: SPXS Country: US Constellation: starlink operational
LEOCIRCULAR

Current View

Loading 3D Globe...

About Starlink 5986

Starlink 5986 (NORAD 56452) is a starlink constellation satellite (v1.5) launched May 10, 2023 by SPXS of US. It operates in LEO, CIRCULAR orbit with a mass of 305.00 kg.

About Starlink 5986

Description loading...

Upcoming Passes

Passes for default location (London). Set your location on the main map for personalized predictions.

Altitude History

Loading altitude history...

Two-Line Element Set

1 56452U 23064E 26171.44121918 -.00000008 00000-0 71107-5 0 9994
2 56452 69.9992 245.5233 0003293 270.3645 89.7137 14.98330459170634
Epoch: Jun 20, 2026 • Age: 17 hours

Current Status

Altitude 577.3 km
Velocity 7.57 km/s
Sub-Earth Point -16.20°S, 108.11°E
Launch Date May 10, 2023
Age 3.1 years
Type internet

Technical Details

Classification Payload
Mass 305.00 kg
Dry Mass 290.00 kg
Total Mass 305.00 kg
Length 0.20 m
Diameter 2.80 m
Span 9.00 m
Shape Box + pan
Manufacturer SPXS
Bus Type Starlink
Phase Status In Orbit
Owner/State SPXS/US

Most Searched